Weather History for Milwaukee, WI

Change the Weather History Date:

Saturday, September 17, 2011

  Actual Average Record
Temperature  
Mean Temperature 60 °F 63 °F  
Max Temperature 65 °F 71 °F 92 °F (1891)
Min Temperature 55 °F 54 °F 39 °F (1916)
Degree Days  
Heating Degree Days 5 4  
Month to date heating degree days 67 41  
Since 1 July heating degree days 67 67  
Cooling Degree Days 0 2  
Month to date cooling degree days 62 54  
Year to date cooling degree days 786 619  
Growing Degree Days 9 (Base 50)    
Moisture  
Dew Point 47 °F    
Average Humidity 64    
Maximum Humidity 75    
Minimum Humidity 52    
Precipitation  
Precipitation 0.00 in 0.11 in 2.35 in (1907)
Month to date precipitation 0.51 1.79  
Year to date precipitation 23.80 25.97  
Snow  
Snow 0.00 in 0.00 in 0.00 in ()
Month to date snowfall 0.0 0.0  
Since 1 July snowfall 0.0 0.0  
Since 1 September snowfall 0.0 0.0  
Snow Depth 0.00 in    
Sea Level Pressure  
Sea Level Pressure 30.30 in    
Wind  
Wind Speed 10 mph (ESE)    
Max Wind Speed 22 mph    
Max Gust Speed 25 mph    
Visibility 10 miles    
Events      
T = Trace of Precipitation, MM = Missing Value Source: NWS Daily Summary

Daily Weather History Graph

Daily Weather History Graph

Search for Another Location

Airport:

Trip Planner

Search our weather history database for the weather conditions in past years. The results will help you decide how hot, cold, wet, or windy it might be!

Date:

Astronomy

Sep. 17, 2011 Rise Set
Actual Time 6:33 AM CDT 6:58 PM CDT
Civil Twilight 6:04 AM CDT 7:26 PM CDT
Nautical Twilight 5:31 AM CDT 8:00 PM CDT
Astronomical Twilight 4:56 AM CDT 8:34 PM CDT
Moon 9:18 PM CDT (9/17) 11:44 AM CDT (9/17)
Length of Visible Light 13h 22m
Length of Day
12h 25m
Waning Gibbous, 76% of the Moon is Illuminated
Sep 17
Waning Gibbous
Sep 20
Last Quarter
Sep 27
New
Oct 3
First Quarter
Oct 11
Full

Hourly Weather History & Observations

Time (CDT) Temp. Dew Point Humidity Pressure Visibility Wind Dir Wind Speed Gust Speed Precip Events Conditions
12:52 AM 57.0 °F 43.0 °F 59% 30.32 in 10.0 mi Calm Calm - N/A   Overcast
1:52 AM 57.2 °F 44.6 °F 63% 30.31 in 10.0 mi SE 8.1 mph - N/A   Overcast
2:52 AM 57.0 °F 46.0 °F 67% 30.31 in 10.0 mi ESE 10.4 mph - N/A   Overcast
3:52 AM 57.0 °F 46.0 °F 67% 30.31 in 10.0 mi Calm Calm - N/A   Overcast
4:52 AM 55.9 °F 45.0 °F 67% 30.31 in 10.0 mi SSW 4.6 mph - N/A   Overcast
5:52 AM 55.9 °F 44.1 °F 64% 30.33 in 10.0 mi Calm Calm - N/A   Overcast
6:52 AM 55.9 °F 45.0 °F 67% 30.34 in 10.0 mi Calm Calm - N/A   Mostly Cloudy
7:52 AM 57.9 °F 45.0 °F 62% 30.34 in 10.0 mi SE 5.8 mph - N/A   Mostly Cloudy
8:52 AM 59.0 °F 44.1 °F 58% 30.34 in 10.0 mi SE 11.5 mph - N/A   Mostly Cloudy
9:52 AM 61.0 °F 45.0 °F 56% 30.34 in 10.0 mi SSE 12.7 mph - N/A   Mostly Cloudy
10:52 AM 62.1 °F 45.0 °F 53% 30.34 in 10.0 mi ESE 15.0 mph 19.6 mph N/A   Mostly Cloudy
11:52 AM 63.0 °F 46.0 °F 54% 30.33 in 10.0 mi SE 15.0 mph - N/A   Mostly Cloudy
12:52 PM 63.0 °F 46.0 °F 54% 30.32 in 10.0 mi ESE 12.7 mph - N/A   Mostly Cloudy
1:52 PM 63.0 °F 50.0 °F 63% 30.31 in 10.0 mi ESE 15.0 mph 23.0 mph N/A   Mostly Cloudy
2:52 PM 62.6 °F 48.2 °F 59% 30.29 in 10.0 mi ESE 16.1 mph - N/A   Scattered Clouds
3:52 PM 63.0 °F 46.9 °F 56% 30.28 in 10.0 mi ESE 12.7 mph - N/A   Scattered Clouds
4:52 PM 62.1 °F 48.0 °F 60% 30.29 in 10.0 mi ESE 11.5 mph - N/A   Scattered Clouds
5:52 PM 61.0 °F 48.9 °F 64% 30.28 in 10.0 mi ESE 8.1 mph - N/A   Scattered Clouds
6:52 PM 59.0 °F 48.0 °F 67% 30.27 in 10.0 mi ESE 9.2 mph - N/A   Partly Cloudy
7:52 PM 57.9 °F 48.9 °F 72% 30.26 in 10.0 mi East 8.1 mph - N/A   Partly Cloudy
8:52 PM 59.0 °F 50.0 °F 72% 30.26 in 10.0 mi East 8.1 mph - N/A   Partly Cloudy
9:52 PM 59.0 °F 52.0 °F 78% 30.26 in 10.0 mi East 6.9 mph - N/A   Scattered Clouds
10:52 PM 62.6 °F 51.8 °F 68% 30.24 in 10.0 mi ESE 11.5 mph - N/A   Scattered Clouds
11:52 PM 63.0 °F 48.9 °F 60% 30.22 in 10.0 mi SSE 16.1 mph - N/A   Scattered Clouds